Location: Stoke Bliss
(52.2667°N, 2.5167°W)
Time: 23:57:58
(UTC+00:00)

IRS-1A Rocket - Pass Details

Date: 03 March 2021
Orbit: 851 x 931 km, 99.2° (Epoch: 11 April)

Event Time Altitude Azimuth Distance (km) Brightness Sun altitude
Exits shadow 19:46:40 14° 154° (SSE) 2,287 6.1 -18.0°
Maximum altitude 19:51:39 77° 70° (ENE) 898 4.2 -18.8°
Drops below altitude 10° 19:57:13 10° 346° (NNW) 2,508 7.0 -19.6°
Sets 19:59:35 0° 345° (NNW) 3,443 7.8 -19.9°
